Flag for Canada Weather past 2 weeks in Windsor, Ontario, Canada

Now
72 °F

Fog.


Feels Like: 69 °F
Forecast: 66 / 81 °F
Wind: 8 mph from South

Location: Windsor Weather Station

Current Time: Aug 30, 2015 at 10:01:46 AM

Latest Report: Aug 30, 2015 at 9:00 AM


Visibility: 6 mi

Pressure: 30.07 "Hg

Humidity: 88%

Dew point: 68 °F

Location of WindsorLocation

Historic Weather in Windsor — Graph

°F

Windsor temperature yesterday

Maximum temperature yesterday: 79 °F (at 2:00 PM)
Minimum temperature yesterday: 61 °F (at 12:00 AM)
Average temperature yesterday: 69 °F

Past Weeks' High & Low Weather Summary

 TemperatureHumidityPressure
High86 °F (Aug 16, 4:00 PM)100% (Aug 16, 5:00 AM)30.22 "Hg (Aug 16, 5:00 AM)
Low50 °F (Aug 28, 5:00 AM)39% (Aug 21, 2:00 PM)29.65 "Hg (Aug 20, 3:00 AM)
Average68 °F77%30.02 "Hg
* Reported Aug 15 9:00 AM — Aug 30 9:00 AM, Windsor, Weather by CustomWeather, © 2015

Note: Actual official high and low records may vary slightly from our data, if they occured in-between our weather recording intervals... More about our weather records

Advertising

Windsor weather history for previous 24 hours

 ConditionsComfort  
Time TempWeatherWind HumidityBarometerVisibility
9:00 AM
Sun, Aug 30
72 °FFog.8 mph88%30.07 "Hg6 mi
8:00 AM66 °FFog.2 mph100%30.06 "Hg5 mi
7:00 AM66 °FFog.2 mph94%30.05 "Hg3 mi
6:00 AM66 °FOvercast.No wind94%30.03 "Hg10 mi
5:00 AM66 °FOvercast.2 mph94%30.03 "Hg10 mi
4:00 AM64 °FOvercast.3 mph100%30.03 "Hg12 mi
3:00 AM66 °FOvercast.2 mph94%30.04 "Hg15 mi
2:00 AM66 °FMostly cloudy.2 mph100%30.06 "Hg15 mi
1:49 AM66 °FMostly cloudy.No wind100%30.06 "Hg15 mi
1:00 AM66 °FSprinkles. Overcast.2 mph94%30.06 "Hg12 mi
12:00 AM68 °FMostly cloudy.5 mph88%30.07 "Hg15 mi
11:00 PM
Sat, Aug 29
68 °FMostly cloudy.No wind88%30.07 "Hg15 mi
10:00 PM70 °FPassing clouds.2 mph83%30.06 "Hg15 mi
9:00 PM72 °FOvercast.2 mph78%30.05 "Hg15 mi
8:00 PM72 °FMore clouds than sun.5 mph78%30.04 "Hg15 mi
7:00 PM72 °FPartly sunny.5 mph78%30.04 "Hg15 mi
6:00 PM75 °FBroken clouds.5 mph69%30.05 "Hg15 mi
5:00 PM73 °FOvercast.6 mph74%30.06 "Hg15 mi
4:00 PM75 °FOvercast.3 mph65%30.08 "Hg15 mi
3:00 PM77 °FCloudy.7 mph61%30.08 "Hg15 mi
2:00 PM79 °FMostly cloudy.6 mph58%30.09 "Hg15 mi
1:00 PM77 °FOvercast.8 mph65%30.10 "Hg15 mi
12:00 PM75 °FMore clouds than sun.5 mph65%30.13 "Hg15 mi
11:00 AM73 °FMostly cloudy.3 mph74%30.13 "Hg15 mi
10:00 AM72 °FPartly sunny.6 mph78%30.14 "Hg12 mi
Weather by CustomWeather, © 2015

See weather overviewHow to use our weather pages